Regional Weather Roundup
Issued by NWS

Home | Current Version | Previous Version | Graphics & Text | Print | Product List | Glossary Off
Versions: 1 2 3 4 5 6 7 8 9 10 11 12 13 14 15 16 17 18 19 20 21 22 23 24 25 26 27 28 29 30 31 32 33 34 35 36 37 38 39 40 41 42 43 44 45 46 47 48 49 50

000
ASUS43 KLOT 281921
RWRIL

ILLINOIS REGIONAL WEATHER ROUNDUP
NATIONAL WEATHER SERVICE CHICAGO/ROMEOVILLE IL
200 PM CDT SAT MAR 28 2015

NOTE: "FAIR" INDICATES FEW OR NO CLOUDS BELOW 12,000 FEET WITH NO
SIGNIFICANT WEATHER AND/OR OBSTRUCTIONS TO VISIBILITY.

* THESE STATIONS ARE NOT UNDER NWS QUALITY CONTROL. THEY ALSO MAY NOT
  REPORT WEATHER SUCH AS PRECIPITATION OR FOG.

ILZ001-002-007-009-015-016-024-282000-
NORTHWEST ILLINOIS

CITY           SKY/WX    TMP DP  RH WIND       PRES   REMARKS
MOLINE         SUNNY     39  10  30 MISG      30.31F
STERLING*      SUNNY     39  16  38 NE6       30.32S WCI  35
SAVANNA*       SUNNY     38  12  33 SW9       30.31F WCI  32
$$

ILZ003-004-008-010-011-017-018-282000-
NORTH CENTRAL ILLINOIS

CITY           SKY/WX    TMP DP  RH WIND       PRES   REMARKS
ROCKFORD       MOSUNNY   37  10  32 VRB3      30.33F
FREEPORT*      SUNNY     35  12  38 CALM      30.32F
ROCHELLE*      SUNNY     36  13  39 SE6       30.32F WCI  31
DE KALB*       SUNNY     35  11  37 NE5       30.31F WCI  31
PERU*          SUNNY     38  10  31 SE5       30.32F WCI  34
$$

ILZ005-006-012>014-019>023-282000-
NORTHEAST ILLINOIS

CITY           SKY/WX    TMP DP  RH WIND       PRES   REMARKS
CHICAGO-OHARE  MOSUNNY   34   7  32 NE8       30.32F WCI  27
CHICAGO-MIDWAY MOSUNNY   35   9  33 NE8       30.34F WCI  29
AURORA         SUNNY     39   6  25 SE6       30.31F WCI  35
LANSING*       SUNNY     33   6  31 NE8       30.33F WCI  26
JOLIET*        SUNNY     38   8  28 N7        30.32F WCI  33
WAUKEGAN       SUNNY     29  14  53 E8        30.32F WCI  21
DUPAGE AIRPORT SUNNY     36   5  27 E6        30.30F WCI  31
KANKAKEE*      SUNNY     36   8  30 E7        30.33F WCI  31
WHEELING       SUNNY     33   7  33 NE9       30.34F WCI  25
MORRIS*        SUNNY     39  10  30 E5        30.31F
ROMEOVILLE*    SUNNY     36   4  25 NE8       30.32F WCI  30
NORTHERLY ISL    N/A     30  14  51 NE8         N/A  WCI  23
$$

LMZ740>746-282000-
SOUTHERN LAKE MICHIGAN

STATION/POSITION SKY/WX   TEMP    WIND        PRES    VSBY  WAVE
                          AIR SEA DIR/SP/G                  HT/PER
                          (F)     (DEG/KT/KT) (MB)    (MI)  (FT/S)
HARRISON CRIB              25      20/  6/  8   N/A
BURNHAM HARBOR             29      50/  7/  8   N/A
CALUMET HARBOR             26      30/  7/ 11 1026.7S
BURNS HARBOR               24      30/  8/ 11 1028.1F
MICHIGAN CITY              27     330/  8/  9   N/A
$$

ILZ025>027-034>036-040-047-049-050-058-095>099-282000-
WEST-CENTRAL ILLINOIS

CITY           SKY/WX    TMP DP  RH WIND       PRES   REMARKS
QUINCY         SUNNY     41  17  38 VRB7      30.28F
GALESBURG*     SUNNY     38  12  34 S3        30.31F
MACOMB*        SUNNY     39  13  34 SE10G16   30.33F WCI  32
JACKSONVILLE*  SUNNY     40  19  42 SE6       30.32F
PITTSFIELD*    SUNNY     41  21  45 E8        30.30F
$$

ILZ028>032-037-038-041>044-048-051>054-059>061-282000-
CENTRAL ILLINOIS

CITY           SKY/WX    TMP DP  RH WIND       PRES   REMARKS
PONTIAC        SUNNY     37  11  33 E7        30.33F WCI  32
BLOOMINGTON    SUNNY     38  11  33 VRB7      30.32F WCI  33
DECATUR        SUNNY     39  17  41 VRB3      30.33F
PEORIA         SUNNY     41  11  29 SE9       30.32F
LACON*         SUNNY     38   8  28 E5        30.32F WCI  35
LINCOLN*       SUNNY     39  15  37 NE3       30.32F
SPRINGFIELD    SUNNY     39  15  37 NE8       30.33F WCI  33
TAYLORVILLE    SUNNY     34  21  60 SE7       30.33F WCI  28
$$

ILZ033-039-045-046-055>057-062-063-282000-
EAST-CENTRAL ILLINOIS

CITY           SKY/WX    TMP DP  RH WIND       PRES   REMARKS
CHAMPAIGN      SUNNY     37  13  37 E5        30.32S WCI  33
DANVILLE*      SUNNY     35  12  38 NE6       30.28F WCI  30
RANTOUL*       SUNNY     37  14  39 NE7       30.32F WCI  31
MATTOON        SUNNY     36  16  44 VRB3      30.31F
PARIS*         SUNNY     37  19  49 E6        30.32F WCI  32
$$

ILZ079-100>102-282000-
SOUTHWEST ILLINOIS

CITY           SKY/WX    TMP DP  RH WIND       PRES   REMARKS
BELLEVILLE     SUNNY     41  20  43 VRB1      30.31F
CAHOKIA*       SUNNY     43  21  41 SE7       30.31F
SPARTA*        SUNNY     40  22  49 CALM      30.31F
$$

ILZ064>066-069>071-074>076-080>082-084>086-088>090-092>094-282000-
SOUTH-CENTRAL ILLINOIS

CITY           SKY/WX    TMP DP  RH WIND       PRES   REMARKS
CARBONDALE     SUNNY     41  21  44 E5        30.33F
CAIRO*         SUNNY     42  25  51 SE5       30.32F
EFFINGHAM*     SUNNY     38  14  37 E3        30.34F
MARION         MOSUNNY   41  18  38 NE7       30.34S
MT. VERNON     SUNNY     43  18  36 CALM      30.32F
CENTRALIA*     SUNNY     38  17  44 W5        30.33S WCI  34
SALEM*         SUNNY     40  15  35 W3        30.33F
METROPOLIS*    SUNNY     43  22  43 N5        30.31F
$$

ILZ067-068-072-073-078-083-087-091-282000-
SOUTHEAST ILLINOIS

CITY           SKY/WX    TMP DP  RH WIND       PRES   REMARKS
LAWRENCEVILLE  SUNNY     37  17  44 NW5       30.34F WCI  33
FLORA*         SUNNY     37  19  48 S3        30.34F
FAIRFIELD*     SUNNY     38  18  44 E3        30.33S
HARRISBURG*    SUNNY     41  19  41 E7        30.33F
ROBINSON*      SUNNY     37  18  45 NW5       30.34S WCI  34
CARMI*         SUNNY     38  15  39 NW5       30.34S WCI  34
$$

ABBREVIATIONS USED IN REMARKS
   TC - TEMPERATURE IN CELSIUS
  WCI - WIND CHILL INDEX
   HX - HEAT INDEX
  VSB - VISIBILITY
$$



USA.gov is the U.S. government's official web portal to all federal, state and local government web resources and services.